Tracking 21474 objects as of 25-Sep-2020
HD Live streaming from Space Station
objects crossing your sky now

METEOR PRIRODA

Track METEOR PRIRODA now!
10-day predictions
METEOR PRIRODA is classified as:


NORAD ID: 12585
Int'l Code: 1981-065A
Perigee: 497.7 km
Apogee: 517.4 km
Inclination: 97.6 °
Period: 94.6 minutes
Semi major axis: 6878 km
RCS: 4.6163 m2 (large)
Launch date: July 10, 1981
Source: Commonwealth of Independent States (former USSR) (CIS)
Launch site: TYURATAM MISSILE AND SPACE COMPLEX (TTMTR)
aabbcc
Your satellite tracking list
Your tracking list is empty




NASA's NSSDC Master Catalog

Two Line Element Set (TLE):
1 12585U 81065A   20269.53378190 +.00000621 +00000-0 +30480-4 0  9994
2 12585 097.5559 258.4779 0014320 172.7529 187.3917 15.21797451138323
Source of the keplerian elements: AFSPC